Location: Winthrop
(48.4780°N, 120.1850°W)
Time: 18:47:59
(UTC-08:00)

Envisat - Pass Details

Date: 28 November 2022
Orbit: 763 x 765 km, 98.2° (Epoch: 05 February)

Event Time Altitude Azimuth Distance (km) Brightness Sun altitude
Rises 04:26:50 0° 13° (NNE) 3,245 6.4 -29.2°
Reaches altitude 10° 04:29:09 10° 13° (NNE) 2,314 5.6 -28.9°
Enters shadow 04:32:21 40° 13° (NNE) 1,124 3.8 -28.3°
